Doha, Qatar

10:31 PM +03 on November 24, 2017 (GMT +0300)
Doha International

Weather History for OTBD - March, 2013

Change the Weather History Date:

Tuesday, March 26, 2013

  Actual Average Record
Temperature  
Mean Temperature 72 °F -  
Max Temperature 81 °F 88 °F 98 °F (2008)
Min Temperature 64 °F 68 °F 60 °F (2012)
Cooling Degree Days 8    
Growing Degree Days 22 (Base 50)    
Moisture  
Dew Point 42 °F    
Average Humidity 36    
Maximum Humidity 56    
Minimum Humidity 8    
Precipitation  
Precipitation 0.00 in 0.01 in - ()
Sea Level Pressure  
Sea Level Pressure 29.97 in    
Wind  
Wind Speed 9 mph ()    
Max Wind Speed 17 mph    
Max Gust Speed 29 mph    
Visibility 6.3 miles    
Events      
Averages and records for this station are not official NWS values.
T = Trace of Precipitation, MM = Missing Value Source: Averaged Metar Reports

Daily Weather History Graph

Daily Weather History Graph

Search for Another Location

Airport or City:

Trip Planner

Search our weather history database for the weather conditions in past years. The results will help you decide how hot, cold, wet, or windy it might be!

Date:

Astronomy

Mar. 26, 2013 Rise Set
Actual Time 5:31 AM +03 5:47 PM +03
Civil Twilight 5:08 AM +03 6:10 PM +03
Nautical Twilight 4:41 AM +03 6:37 PM +03
Astronomical Twilight 4:15 AM +03 7:04 PM +03
Moon 4:59 PM +03 (3/26) 4:30 AM +03 (3/26)
Length of Visible Light 13h 01m
Length of Day
12h 16m
Waxing Gibbous, 99% of the Moon is Illuminated
Mar 26
Waxing Gibbous
Mar 27
Full
Apr 3
Last Quarter
Apr 10
New
Apr 18
First Quarter

Hourly Weather History & Observations

Time (+03) Temp. Dew Point Humidity Pressure Visibility Wind Dir Wind Speed Gust Speed Precip Events Conditions
12:00 AM 68.0 °F 46.4 °F 46% 29.98 in - NW 10.4 mph - N/A   Clear
12:30 AM 66.2 °F 48.2 °F 52% 29.95 in - NW 9.2 mph - N/A   Clear
1:00 AM 66.2 °F 46.4 °F 49% 29.95 in - NW 9.2 mph - N/A   Clear
1:30 AM 66.2 °F 48.2 °F 52% 29.95 in - NW 9.2 mph - N/A   Clear
2:00 AM 66.2 °F 48.2 °F 52% 29.95 in - NW 10.4 mph - N/A   Clear
2:30 AM 66.2 °F 46.4 °F 49% 29.92 in - NW 10.4 mph - N/A   Clear
3:00 AM 67 °F 46 °F 36% 29.95 in 6 mi WNW 10.4 mph - -  
3:00 AM 66.2 °F 46.4 °F 49% 29.95 in - WNW 10.4 mph - N/A   Clear
3:30 AM 66.2 °F 46.4 °F 49% 29.95 in - NW 10.4 mph - N/A   Clear
4:00 AM 66.2 °F 48.2 °F 52% 29.95 in - NW 8.1 mph - N/A   Clear
4:30 AM 66.2 °F 50.0 °F 56% 29.95 in - WNW 8.1 mph - N/A   Clear
5:00 AM 66.2 °F 50.0 °F 56% 29.98 in - WNW 5.8 mph - N/A   Clear
5:30 AM 66.2 °F 48.2 °F 52% 29.98 in 5.6 mi West 5.8 mph - N/A   Unknown
6:00 AM 66.2 °F 48.2 °F 52% 29.98 in 5.6 mi West 4.6 mph - N/A   Unknown
6:30 AM 66.2 °F 50.0 °F 56% 30.01 in 5.6 mi West 4.6 mph - N/A   Unknown
7:30 AM 68.0 °F 48.2 °F 49% 30.01 in 5.6 mi West 6.9 mph - N/A   Unknown
8:00 AM 69.8 °F 48.2 °F 46% 30.04 in - West 5.8 mph - N/A   Clear
8:30 AM 71.6 °F 46.4 °F 41% 30.04 in - WNW 11.5 mph - N/A   Clear
9:00 AM 72 °F 48 °F 32% 30.04 in 6 mi NW 11.5 mph - -  
9:00 AM 71.6 °F 48.2 °F 43% 30.04 in - NW 11.5 mph - N/A   Clear
10:00 AM 75.2 °F 46.4 °F 36% 30.01 in - NW 15.0 mph - N/A   Clear
11:00 AM 77.0 °F 42.8 °F 29% 30.01 in - WNW 11.5 mph - N/A   Clear
12:00 PM 78.8 °F 42.8 °F 28% 29.98 in - NW 16.1 mph 28.8 mph N/A   Clear
12:30 PM 78.8 °F 41.0 °F 26% 29.95 in - NW 15.0 mph - N/A   Clear
1:00 PM 80.6 °F 41.0 °F 24% 29.95 in - NW 17.3 mph - N/A   Clear
2:00 PM 78.8 °F 39.2 °F 24% 29.92 in - NW 13.8 mph - N/A   Clear
2:30 PM 80.6 °F 35.6 °F 20% 29.92 in - NW 13.8 mph - N/A   Clear
3:00 PM 80 °F 30 °F 8% 29.94 in 9 mi NW 16.1 mph - -  
3:00 PM 80.6 °F 30.2 °F 16% 29.92 in - NW 16.1 mph - N/A   Clear
3:30 PM 80.6 °F 30.2 °F 16% 29.92 in - WNW 11.5 mph - N/A   Clear
4:00 PM 78.8 °F 37.4 °F 23% 29.95 in - NW 15.0 mph - N/A   Clear
4:30 PM 78.8 °F 28.4 °F 16% 29.95 in - NNW 15.0 mph - N/A   Clear
5:00 PM 77.0 °F 28.4 °F 17% 29.95 in - NW 13.8 mph - N/A   Clear
5:30 PM 77.0 °F 32.0 °F 19% 29.95 in - NW 13.8 mph - N/A   Clear
6:00 PM 75.2 °F 30.2 °F 19% 29.95 in - NW 11.5 mph - N/A   Clear
6:30 PM 73.4 °F 32.0 °F 22% 29.95 in - NW 9.2 mph - N/A   Clear
7:00 PM 73.4 °F 32.0 °F 22% 29.95 in - NW 9.2 mph - N/A   Clear
7:30 PM 73.4 °F 33.8 °F 23% 29.95 in - NNW 8.1 mph - N/A   Clear
8:00 PM 71.6 °F 35.6 °F 27% 29.98 in - NW 9.2 mph - N/A   Clear
8:30 PM 71.6 °F 39.2 °F 31% 29.98 in - WNW 6.9 mph - N/A   Clear
9:00 PM 71 °F 41 °F 23% 29.99 in 7 mi WNW 3.5 mph - -  
9:00 PM 69.8 °F 41.0 °F 35% 29.98 in - WNW 3.5 mph - N/A   Clear
9:30 PM 69.8 °F 44.6 °F 40% 29.98 in - WNW 3.5 mph - N/A   Clear
10:00 PM 69.8 °F 44.6 °F 40% 29.98 in - Variable 2.3 mph - N/A   Clear
10:30 PM 69.8 °F 42.8 °F 38% 29.95 in - NW 4.6 mph - N/A   Clear
11:00 PM 68.0 °F 46.4 °F 46% 29.98 in - Variable 2.3 mph - N/A   Clear